Voltar ao catálogo

SATCOM 1

AtivoComunicaçõesGEO
NORAD 8476·PAYLOAD·🇺🇸 United States

Lançado Dec 13, 1975 de Cape Canaveral Space Force Station

Loading…

TLE

AtualizadoSource: Space-Track

Época: Sep 14, 2026, 11:49 UTC

1 08476U 75117A   26257.49262855 -.00000263  00000-0  00000-0 0  9991
2 08476   7.8068 304.0189 0016506 280.0852 250.0215  0.99603070 47251

Acompanhe SATCOM 1 em tempo real com AllMySat

Download on the App Store